Location: Clarion
(42.7316°N, 93.7330°W)
Time: 21:35:11
(UTC+00:00)

ADEOS Rocket - Pass Details

Date: 22 April 2026
Orbit: 859 x 1304 km, 98.8° (Epoch: 12 May)

Event Time Altitude Azimuth Distance (km) Brightness Sun altitude
Rises 07:37:22 0° 19° (NNE) 4,203 7.4 -31.8°
Reaches altitude 10° 07:40:10 10° 25° (NNE) 3,269 6.6 -31.6°
Maximum altitude 07:47:29 47° 97° (E) 1,678 4.2 -31.0°
Enters shadow 07:49:37 39° 136° (SE) 1,873 4.2 -30.8°
